{"data":{"norad_id":45358,"intl_designator":"2020-018A","name":"COSMOS 2545 (760)","alt_names":[],"object_type":"PAYLOAD","status":"ACTIVE","operator":null,"country":"CIS","launch_date":"2020-03-16","launch_site_code":"PLMSC","launch_vehicle":null,"mission":null,"orbit_class":"UNKNOWN","rcs_meters":null,"size_class":null,"mass_kg":null,"dimensions":null,"purposes":["nav"],"wikipedia_slug":null,"has_3d_model":false,"image_url":null,"decayed_at":null,"tle_current":{"epoch":"2026-09-20T00:21:16.228224Z","epoch_age_seconds":56282,"freshness":"FRESH","line1":"1 45358U 20018A   26263.01477116 -.00000022  00000+0  00000+0 0  9995","line2":"2 45358  64.2932 309.0810 0011946 236.7664 123.1908  2.13102750 50683","mean_motion":2.1310275,"eccentricity":0.0011946,"inclination_deg":64.2932,"raan_deg":309.081,"arg_perigee_deg":236.7664,"mean_anomaly_deg":123.1908,"bstar":0,"rev_number":5068,"period_min":675.73036950485,"perigee_km":19099.35576389,"apogee_km":19160.299392861,"semimajor_km":25507.964578375,"source":"CELESTRAK","updated_at":"2026-09-20T09:00:46.278468Z"}}}